TimeMST,TemperatureF,Dew PointF,Humidity,Sea Level PressureIn,VisibilityMPH,Wind Direction,Wind SpeedMPH,Gust SpeedMPH,PrecipitationIn,Events,Conditions,WindDirDegrees,DateUTC
12:53 AM,37.0,18.0,46,29.71,10.0,South,6.9,-,N/A,,Clear,170,2013-01-10 07:53:00
1:53 AM,41.0,15.1,35,29.66,10.0,South,9.2,-,N/A,,Clear,170,2013-01-10 08:53:00
2:53 AM,39.0,16.0,39,29.62,10.0,South,6.9,-,N/A,,Clear,180,2013-01-10 09:53:00
3:53 AM,36.0,17.1,46,29.60,10.0,East,6.9,-,N/A,,Clear,90,2013-01-10 10:53:00
4:53 AM,39.9,16.0,38,29.54,10.0,South,6.9,-,N/A,,Clear,190,2013-01-10 11:53:00
5:53 AM,39.9,16.0,38,29.52,10.0,SE,6.9,-,N/A,,Clear,130,2013-01-10 12:53:00
6:53 AM,39.9,17.1,40,29.52,10.0,SE,3.5,-,N/A,,Clear,130,2013-01-10 13:53:00
7:53 AM,48.9,12.9,24,29.49,10.0,South,18.4,-,N/A,,Clear,190,2013-01-10 14:53:00
8:53 AM,48.0,15.1,27,29.45,10.0,South,20.7,27.6,N/A,,Clear,180,2013-01-10 15:53:00
10:53 AM,46.9,18.0,32,29.47,10.0,South,23.0,28.8,N/A,,Clear,170,2013-01-10 17:53:00
11:53 AM,54.0,19.9,26,29.42,10.0,WSW,19.6,24.2,N/A,,Clear,240,2013-01-10 18:53:00
12:29 PM,44.6,19.4,37,29.48,10.0,NNW,15.0,25.3,N/A,,Clear,330,2013-01-10 19:29:00
12:53 PM,39.9,19.0,43,29.48,10.0,NW,17.3,25.3,N/A,,Clear,320,2013-01-10 19:53:00
1:53 PM,44.1,19.0,37,29.45,10.0,NNW,6.9,-,N/A,,Clear,340,2013-01-10 20:53:00
2:53 PM,42.1,19.0,40,29.45,10.0,NNW,6.9,-,N/A,,Clear,340,2013-01-10 21:53:00
3:53 PM,42.1,19.0,40,29.46,10.0,NNW,6.9,-,N/A,,Clear,340,2013-01-10 22:53:00
4:53 PM,37.9,19.9,48,29.47,10.0,NNW,13.8,24.2,N/A,,Clear,330,2013-01-10 23:53:00
5:53 PM,33.1,21.0,61,29.49,10.0,NW,9.2,-,N/A,,Clear,320,2013-01-11 00:53:00
6:53 PM,30.0,19.9,66,29.50,10.0,North,10.4,-,N/A,,Clear,350,2013-01-11 01:53:00
7:31 PM,26.6,24.8,93,29.48,7.0,NNW,17.3,26.5,N/A,,Scattered Clouds,330,2013-01-11 02:31:00
7:34 PM,26.6,24.8,93,29.48,1.8,NNW,17.3,26.5,N/A,,Mostly Cloudy,330,2013-01-11 02:34:00
7:36 PM,26.6,24.8,93,29.48,0.8,NNW,18.4,26.5,N/A,,Mist,330,2013-01-11 02:36:00
7:53 PM,26.1,25.0,96,29.49,0.2,NNW,9.2,-,N/A,Fog,Light Freezing Fog,340,2013-01-11 02:53:00
8:53 PM,26.1,24.1,92,29.50,0.2,NNW,13.8,-,N/A,Fog,Light Freezing Fog,330,2013-01-11 03:53:00
9:53 PM,24.1,23.0,96,29.51,0.2,NNW,12.7,23.0,N/A,Fog,Light Freezing Fog,340,2013-01-11 04:53:00
10:53 PM,21.9,21.0,96,29.53,0.8,North,18.4,24.2,N/A,,Mist,350,2013-01-11 05:53:00
11:02 PM,21.2,19.4,93,29.51,1.2,North,19.6,26.5,N/A,,Overcast,350,2013-01-11 06:02:00
11:05 PM,21.2,19.4,93,29.51,3.0,NNW,21.9,28.8,N/A,,Overcast,340,2013-01-11 06:05:00
11:53 PM,19.0,17.1,92,29.52,10.0,North,21.9,34.5,N/A,,Overcast,350,2013-01-11 06:53:00